| time (UTC) | temp C | wind direction | speed KPH | gust KPH | rain 1hr cm | rain 24hr cm | rain mn cm | humidity % | barometer mb |
| 20260504050017 | 8 | 0.0 | 0.0 | 0.00 | 0.00 | 0.00 | 59 | 1010.5 | |
| 20260504043017 | 8 | 0.0 | 0.0 | 0.00 | 0.00 | 0.00 | 59 | 1010.6 | |
| 20260504040017 | 8 | 0.0 | 3.2 | 0.00 | 0.00 | 0.00 | 59 | 1010.8 | |
| 20260504033017 | 8 | 248 | 1.6 | 11.3 | 0.00 | 0.00 | 0.00 | 58 | 1010.8 |
| 20260504030037 | 8 | 248 | 1.6 | 11.3 | 0.00 | 0.00 | 0.00 | 58 | 1010.9 |
| 20260504023017 | 7 | 0.0 | 0.0 | 0.00 | 0.00 | 0.00 | 59 | 1011.0 | |
| 20260504020017 | 7 | 0.0 | 0.0 | 0.00 | 0.00 | 0.00 | 57 | 1010.9 | |
| 20260504013017 | 8 | 0.0 | 0.0 | 0.00 | 0.00 | 0.00 | 57 | 1010.9 | |
| 20260504010017 | 8 | 0.0 | 0.0 | 0.00 | 0.00 | 0.00 | 55 | 1010.5 | |
| 20260504003017 | 8 | 0.0 | 0.0 | 0.00 | 0.00 | 0.00 | 54 | 1010.1 | |
| 20260504000017 | 9 | 0.0 | 0.0 | 0.00 | 0.00 | 0.00 | 51 | 1010.0 | |
| 20260503233017 | 10 | 270 | 1.6 | 12.9 | 0.00 | 0.00 | 0.00 | 49 | 1009.8 |
| 20260503230057 | 11 | 248 | 6.4 | 20.9 | 0.00 | 0.00 | 0.00 | 48 | 1009.8 |
| 20260503223016 | 10 | 248 | 11.3 | 25.7 | 0.00 | 0.00 | 0.00 | 50 | 1009.9 |
| 20260503220016 | 10 | 248 | 12.9 | 35.4 | 0.00 | 0.00 | 0.00 | 50 | 1009.9 |
| 20260503213017 | 10 | 270 | 12.9 | 30.6 | 0.00 | 0.00 | 0.00 | 46 | 1009.5 |
| 20260503210016 | 10 | 248 | 11.3 | 27.4 | 0.00 | 0.00 | 0.00 | 44 | 1009.3 |
| 20260503203016 | 10 | 270 | 9.7 | 25.7 | 0.00 | 0.00 | 0.00 | 42 | 1009.5 |
| 20260503200038 | 10 | 293 | 12.9 | 33.8 | 0.00 | 0.00 | 0.00 | 37 | 1009.5 |
| 20260503193016 | 10 | 293 | 12.9 | 33.8 | 0.00 | 0.00 | 0.00 | 36 | 1010.0 |
| 20260503190016 | 11 | 293 | 14.5 | 35.4 | 0.00 | 0.00 | 0.00 | 36 | 1010.3 |
| 20260503183016 | 10 | 248 | 12.9 | 33.8 | 0.00 | 0.00 | 0.00 | 37 | 1010.5 |
| 20260503180016 | 8 | 293 | 12.9 | 30.6 | 0.00 | 0.00 | 0.00 | 40 | 1010.6 |
| 20260503173036 | 8 | 270 | 12.9 | 27.4 | 0.00 | 0.00 | 0.00 | 44 | 1010.7 |